Погода в Варве

Украина / Черниговская область     50°29′58″N   32°43′20″E
темп.,
°C
ветер,
м/с
пор.,
м/с
влажн.,
%
обл.,
%
осадки,
мм/ч
давл.,
гПа
погр.,
м
16 июня, ср
ср1600:00+17ссв369350 4.2 1011103
03:00+16ссв489524 5.8 1011143
06:00+16ссв489685 1.6 1011225
09:00+20ссв578449 1.6 1012480
12:00+23ссв677538 2.6 1012791
15:00+24ссв577413 5.2 10131142
18:00+21ссв588590 3.9 1012339
21:00+18св499381 5.6 1014183
17 июня, чт
чт1700:00+17св410955 0.3 1015215
03:00+17св5129592 0.4 1016283
06:00+17св5129599 0.0 1016322
09:00+21всв6108493 0.0 1018584
12:00+23всв6871100 0.0 10191141
15:00+24св687174 0.1 10191356
18:00+23св710790 0.1 1020937
21:00+19св613830 0.1 1021443
18 июня, пт
пт1800:00+16св513850 0.0 1022330
03:00+15св512910 0.0 1022300
06:00+15св512890 0.0 1023318
09:00+19всв710770 0.0 1023473
12:00+22всв78690 0.0 1023970
15:00+23всв686743 0.0 10231301
18:00+22в69720 0.0 1023952
21:00+18в49900 0.0 1024178
19 июня, сб
сб1900:00+16всв410940 0.0 1024188
03:00+14всв49950 0.0 1025158
06:00+15всв49930 0.0 1025206
09:00+20в58791 0.0 1025478
12:00+23в686659 0.0 10241076
15:00+24в6766100 0.0 10231271
18:00+23в587424 0.0 10221120
21:00+19всв4119183 0.8 1023296
20 июня, вс
вс2000:00+17в51293100 0.8 1023276
03:00+16в41093100 0.8 1023207
06:00+15в41191100 0.0 1023237
09:00+19в5875100 0.0 1022377
12:00+23в5763100 0.0 1022832
15:00+24в6761100 0.0 10211071
18:00+23в5874100 0.0 1020574
21:00+19всв41085100 0.0 1020229